Vorticity
nan nan nan nan nan nan nan nan nan nan nan nan nan nan nan nan nan nan nan nan nan nan nan nan nan nan nan nan nan nan nan nan nan nan nan nan nan nan nan nan nan nan nan nan nan
nan 7 8 8 7 7 8 8 8 8 9 8 8 8 7 9 14 18 14 9 3 4 9 11 8 9 8 8 8 8 9 9 6 8 8 7 7 5 10 15 7 1 12 16 nan
nan 8 8 8 9 9 9 8 8 8 10 9 8 7 8 13 16 15 10 8 9 15 10 5 8 10 7 7 9 7 10 9 7 6 7 6 6 6 11 9 13 14 9 6 nan
nan 8 8 9 10 9 10 9 8 7 8 10 9 7 13 12 9 3 -0 6 17 21 8 6 8 9 9 7 6 4 8 8 4 3 6 5 3 9 5 2 1 5 16 12 nan
nan 8 9 9 9 10 9 9 8 9 8 9 9 12 12 8 8 1 4 10 14 9 8 8 7 8 8 8 7 10 6 6 3 1 5 7 6 8 6 7 -1 5 15 10 nan
nan 9 9 9 8 9 10 10 9 10 11 13 11 12 7 4 8 3 5 7 7 9 11 5 6 7 9 11 7 8 8 6 7 8 6 7 4 3 5 3 4 8 12 15 nan
nan 8 8 9 8 8 9 10 10 17 19 14 13 9 5 8 4 3 8 10 5 7 8 6 8 8 7 7 10 7 8 11 10 6 6 9 7 6 -1 -4 1 3 9 19 nan
nan 8 7 8 8 7 8 10 15 20 18 14 11 7 7 9 5 11 11 12 12 8 5 7 10 9 8 8 10 11 11 8 12 9 7 5 14 10 10 11 5 6 7 14 nan
nan 8 8 8 8 9 9 15 18 13 9 8 7 5 9 9 9 12 10 9 13 10 7 10 9 9 11 7 7 10 13 10 9 12 10 2 5 10 14 11 12 10 9 11 nan
nan 9 8 9 8 10 16 21 13 6 7 5 4 7 5 4 7 12 12 8 10 10 8 10 7 8 6 6 8 10 7 9 11 12 8 8 3 -1 6 9 8 10 11 12 nan
nan 10 10 9 10 14 20 15 8 7 4 5 6 6 3 8 13 13 9 8 7 7 7 8 8 7 6 5 6 5 6 6 5 3 14 13 14 9 -4 2 5 9 14 15 nan
nan 11 11 11 14 20 13 8 11 7 8 11 10 8 9 10 10 9 9 7 7 7 7 5 9 12 10 8 5 5 6 8 8 10 9 11 10 12 14 6 6 9 15 16 nan
nan 11 13 14 21 16 8 11 11 9 9 12 12 10 13 7 4 10 11 6 9 7 6 5 10 14 11 5 7 6 8 7 5 11 13 16 15 12 14 13 6 11 19 15 nan
nan 13 15 21 18 6 9 11 9 6 5 7 15 14 7 5 6 15 11 8 6 9 7 8 11 11 7 6 9 10 10 7 7 10 7 10 23 16 10 13 10 8 14 11 nan
nan 15 22 21 9 7 10 11 8 5 1 7 16 2 4 12 10 13 12 15 10 8 5 8 12 9 6 11 8 9 9 10 10 8 9 6 8 16 16 9 14 11 9 10 nan
nan 20 24 14 7 10 10 7 7 8 3 10 5 2 11 15 12 7 6 7 19 15 3 4 5 7 7 13 11 5 9 9 12 13 12 10 8 11 15 13 9 10 10 10 nan
nan 26 22 6 10 14 7 6 9 5 3 4 5 8 15 11 8 8 9 11 13 14 10 10 8 7 9 8 13 8 7 7 12 10 14 13 4 12 14 13 12 10 11 10 nan
nan 28 14 9 13 9 5 8 7 6 5 5 5 15 17 10 10 7 11 11 9 7 14 13 16 15 11 10 13 13 -3 8 11 10 12 9 6 14 12 16 17 13 15 11 nan
nan 20 6 9 15 6 7 9 5 4 5 9 16 17 11 8 7 11 11 12 16 8 3 10 7 14 14 16 9 7 5 3 9 11 15 12 3 7 23 21 14 14 12 13 nan
nan 10 4 10 14 9 10 7 9 2 6 14 13 9 7 7 10 12 11 10 14 13 1 4 10 12 15 12 6 7 10 5 9 11 11 14 7 7 15 13 12 13 8 9 nan
nan 9 4 12 14 9 9 7 7 6 14 11 10 10 8 8 10 9 10 11 15 17 5 1 11 9 12 16 7 5 3 1 4 12 12 14 15 12 10 14 12 11 10 8 nan
nan 6 7 12 13 8 5 9 11 12 11 11 10 11 10 9 10 10 8 10 17 11 11 5 5 11 8 10 16 11 7 5 10 9 0 13 18 17 23 15 11 12 11 10 nan
nan 9 8 13 9 8 10 13 9 6 7 12 11 13 4 3 8 11 7 7 16 11 8 9 6 8 13 10 21 18 10 3 -2 9 10 9 9 11 27 21 15 14 10 8 nan
nan 12 11 10 9 6 11 10 8 12 11 9 9 3 4 16 12 7 9 5 9 14 6 6 11 6 2 8 16 20 13 9 2 -4 12 12 5 17 16 15 14 7 7 11 nan
nan 12 8 6 5 7 14 10 7 10 12 10 11 -3 8 18 13 8 7 10 8 14 10 10 10 10 5 18 15 17 15 11 7 -0 -6 -6 4 21 16 14 10 5 6 7 nan
nan 10 10 9 7 12 13 8 3 9 12 6 -4 -1 16 16 6 5 14 11 10 16 13 7 8 10 20 18 13 21 17 9 8 7 -2 -10 4 21 21 14 9 9 8 7 nan
nan nan nan nan nan nan nan nan nan nan nan nan nan nan nan nan nan nan nan nan nan nan nan nan nan nan nan nan nan nan nan nan nan nan nan nan nan nan nan nan nan nan nan nan nan
CAPE
3 6 4 4 4 5 12 13 15 12 13 15 11 15 20 15 6 0 0 0 0 0 0 0 0 0 0 0 0 0 0 0 0 0 0 0 0 0 0 0 0 0 0 621 1558
8 5 4 5 6 12 15 14 13 17 18 13 12 15 20 11 0 0 0 0 0 0 0 0 0 0 0 0 0 0 0 0 0 0 0 0 0 0 0 0 0 0 951 1373 1614
5 10 8 9 6 7 8 9 12 13 15 18 7 11 11 9 0 0 0 0 0 0 0 0 0 0 0 0 0 0 0 0 0 0 0 0 0 0 0 0 0 354 674 1470 1483
11 7 4 3 6 4 6 8 10 12 15 17 10 8 12 0 0 0 0 0 0 0 0 0 0 0 0 0 0 0 0 0 0 0 0 0 0 0 0 0 0 0 258 1591 1705
6 10 8 6 5 4 4 6 8 11 12 12 17 14 4 0 0 0 0 0 0 0 0 0 0 0 0 0 0 0 0 0 0 0 0 0 0 0 0 0 0 0 7 1415 1640
9 11 4 4 4 4 3 5 5 9 11 15 17 9 3 0 0 0 0 0 0 0 0 0 0 0 0 0 0 0 0 0 0 0 0 0 0 0 0 0 0 0 0 28 1401
6 11 5 6 5 4 3 6 6 3 5 14 9 11 7 0 0 0 0 0 0 0 0 0 0 0 0 0 0 0 0 0 0 0 0 0 0 0 0 0 0 0 0 138 1007
9 10 6 4 3 4 3 2 2 1 1 2 4 14 1 0 0 0 0 0 0 0 0 0 0 0 0 0 0 0 0 0 0 0 0 0 0 0 0 0 0 0 0 98 1175
6 10 4 3 3 3 4 2 0 0 0 0 2 1 0 0 0 0 0 0 0 0 0 0 0 0 6 0 0 0 0 0 0 0 0 0 0 0 0 0 0 0 0 0 989
6 4 2 1 1 1 2 0 0 0 0 0 0 0 0 0 0 0 0 0 0 0 0 0 0 2 0 0 0 0 0 0 0 0 0 0 0 0 0 0 0 0 0 0 372
3 2 2 2 0 0 0 0 0 0 0 0 0 0 0 0 0 0 0 0 0 0 0 0 3 10 1 0 0 0 0 0 0 0 0 0 0 0 0 0 0 0 0 0 527
5 1 1 1 0 0 0 0 0 0 0 0 0 0 0 0 0 0 0 0 0 0 0 0 1 0 1 2 1 0 0 0 0 0 0 0 0 0 0 0 0 0 0 489 1296
4 1 1 1 2 0 0 0 0 0 0 0 0 0 0 0 0 0 0 0 0 0 0 0 0 0 0 0 3 2 0 0 0 0 0 0 0 0 0 0 0 0 62 1101 1551
4 2 1 1 0 0 0 0 0 0 0 0 0 0 0 0 0 0 0 0 0 0 0 0 0 0 0 0 0 0 0 0 0 0 0 1 0 0 0 0 0 0 1197 1390 1507
3 5 1 0 0 0 0 0 0 0 0 0 0 0 3 0 1 0 0 0 0 0 0 0 0 0 0 0 0 0 0 0 0 1 7 5 1 0 0 0 0 0 1008 1552 1621
1 2 0 0 0 0 0 0 0 0 0 0 0 5 4 0 0 8 19 0 1 2 6 0 0 0 0 0 0 0 0 0 6 13 15 0 0 0 0 0 0 0 595 1512 1777
0 0 0 0 0 0 0 0 0 0 1 1 3 8 0 0 0 0 4 10 18 11 10 0 2 0 0 0 0 4 11 3 11 33 0 0 10 0 0 0 0 0 430 1475 1887
0 0 0 0 0 0 0 0 0 0 12 10 29 1 0 1 1 1 2 7 10 16 5 15 3 0 0 0 0 0 30 17 0 0 0 0 2 0 0 0 0 0 599 1556 1452
0 0 0 0 0 0 0 0 0 16 11 17 13 7 2 6 20 20 0 0 0 3 18 51 2 0 0 0 0 1 2 4 11 2 1 0 0 0 0 0 0 38 1199 1516 1156
0 0 0 0 0 0 0 0 0 5 1 9 39 8 19 9 13 19 0 0 0 0 0 5 43 17 30 0 8 13 9 16 26 39 5 0 0 0 0 0 0 184 1354 1204 780
0 0 0 0 0 0 0 0 0 0 0 16 27 25 8 11 28 30 4 3 0 1 0 0 29 10 13 5 13 63 59 34 70 63 9 0 0 0 0 0 0 633 1526 1302 840
0 0 0 0 0 0 0 0 0 0 0 0 7 14 0 6 16 28 28 45 0 0 6 8 25 33 35 33 43 65 122 80 2 39 10 1 0 0 0 0 0 542 1729 1431 1140
0 0 0 0 0 0 0 0 0 0 0 0 9 29 10 5 4 15 41 11 2 0 1 1 20 46 105 36 168 161 87 66 23 6 1 3 1 0 0 0 159 1270 1432 1355 626
0 0 0 0 0 0 0 0 0 0 0 0 0 6 54 8 4 5 7 9 12 10 25 47 40 23 45 65 195 90 48 53 24 7 1 15 87 0 0 3 689 1552 729 303 22
0 0 0 0 0 0 0 0 0 0 0 0 0 0 1 3 11 13 9 10 0 7 34 44 141 110 94 80 139 65 15 8 5 0 1 27 1 65 7 129 1027 1180 583 51 2
0 0 0 2 1 0 0 0 0 0 0 0 0 0 0 3 3 6 12 8 4 10 52 17 79 55 38 17 15 14 5 6 0 0 0 0 0 30 380 530 724 287 70 8 2
0 0 2 0 0 0 0 0 0 0 0 0 0 0 0 0 0 0 1 10 10 2 2 2 10 34 134 13 17 6 6 0 0 0 0 5 0 194 400 626 329 172 34 4 1